This is the latest recevied weather packets stored in our database for station/object EA1HEH-13. If no packets are shown the sender has not sent any weather packets the latest 10 day(s).
| Time | Temp. | Humidity | Pressure | Rain* | Wind** | Luminosity | Snow |
|---|---|---|---|---|---|---|---|
| 1788554089 | 30.56° C | 17% | 942.4 hPa | - | - | - | - |
| 1788553489 | 30.56° C | 17% | 942.1 hPa | - | - | - | - |
| 1788552889 | 30.56° C | 17% | 942.1 hPa | - | - | - | - |
| 1788552289 | 30.56° C | 16% | 942 hPa | - | - | - | - |
| 1788551689 | 31.11° C | 16% | 942 hPa | - | - | - | - |
| 1788551089 | 31.11° C | 16% | 941.8 hPa | - | - | - | - |
| 1788550489 | 30.56° C | 16% | 941.6 hPa | - | - | - | - |
| 1788549889 | 31.11° C | 16% | 941.6 hPa | - | - | - | - |
| 1788549289 | 31.11° C | 16% | 941.5 hPa | - | - | - | - |
| 1788548689 | 31.11° C | 16% | 941.4 hPa | - | - | - | - |
| 1788548089 | 31.11° C | 16% | 941.3 hPa | - | - | - | - |
| 1788547489 | 31.11° C | 16% | 941.4 hPa | - | - | - | - |
| 1788546889 | 31.67° C | 15% | 941.3 hPa | - | - | - | - |
| 1788546289 | 32.22° C | 15% | 941.4 hPa | - | - | - | - |
| 1788545689 | 32.22° C | 14% | 941.4 hPa | - | - | - | - |
| 1788545089 | 32.78° C | 14% | 941.4 hPa | - | - | - | - |
| 1788544489 | 32.78° C | 14% | 941.4 hPa | - | - | - | - |
| 1788543889 | 33.33° C | 13% | 941.4 hPa | - | - | - | - |
| 1788543289 | 33.33° C | 13% | 941.5 hPa | - | - | - | - |
| 1788542689 | 33.33° C | 13% | 941.4 hPa | - | - | - | - |
| 1788542089 | 33.33° C | 13% | 941.4 hPa | - | - | - | - |
| 1788541489 | 32.78° C | 13% | 941.5 hPa | - | - | - | - |
| 1788540889 | 32.78° C | 14% | 941.4 hPa | - | - | - | - |
| 1788540289 | 32.78° C | 14% | 941.5 hPa | - | - | - | - |
| 1788539689 | 32.78° C | 13% | 941.5 hPa | - | - | - | - |
* Rain since midnight (hover to see other rain measurements)
** Current wind speed in m/s (hover to see current wind gust speed)